Franklin, PA

10:15 PM EST on December 15, 2019 (GMT -0500)
Venango Regional

Weather History for KFKL - October, 2019

Change the Weather History Date:

Saturday, October 19, 2019

  Actual Average Record
Temperature  
Mean Temperature 44 °F -  
Max Temperature 60 °F 58 °F 82 °F (1938)
Min Temperature 28 °F 37 °F 24 °F (1974)
Degree Days  
Heating Degree Days 22    
Moisture  
Dew Point 32 °F    
Average Humidity 91    
Maximum Humidity 100    
Minimum Humidity 47    
Precipitation  
Precipitation 0.00 in - - ()
Sea Level Pressure  
Sea Level Pressure 30.05 in    
Wind  
Wind Speed 3 mph (ESE)    
Max Wind Speed 10 mph    
Max Gust Speed -    
Visibility 4 miles    
Events Fog    
Averages and records for this station are not official NWS values.
T = Trace of Precipitation, MM = Missing Value Source: NWS Daily Summary

Daily Weather History Graph

Daily Weather History Graph

Search for Another Location

Airport or City:

Astronomy

Oct. 19, 2019 Rise Set
Actual Time 7:35 AM EDT 6:32 PM EDT
Civil Twilight 7:07 AM EDT 7:00 PM EDT
Nautical Twilight 6:35 AM EDT 7:32 PM EDT
Astronomical Twilight 6:03 AM EDT 8:04 PM EDT
Moon 10:37 PM EDT (10/19) 1:09 PM EDT (10/19)
Length of Visible Light 11h 53m
Length of Day
10h 57m
Waning Gibbous, 70% of the Moon is Illuminated
Oct 19
Waning Gibbous
Oct 21
Last Quarter
Oct 27
New
Nov 4
First Quarter
Nov 12
Full

Hourly Weather History & Observations

Time (EDT) Temp. Windchill Dew Point Humidity Pressure Visibility Wind Dir Wind Speed Gust Speed Precip Events Conditions
12:03 AM 33.8 °F 30.8 °F 32.0 °F 93% 30.06 in 0.5 mi East 3.5 mph - N/A Fog Fog
12:07 AM 33.8 °F 30.8 °F 32.0 °F 93% 30.06 in 1.0 mi East 3.5 mph - N/A   Overcast
12:14 AM 32.0 °F 28.7 °F 32.0 °F 100% 30.06 in 1.2 mi East 3.5 mph - N/A   Mostly Cloudy
12:21 AM 32.0 °F - 30.2 °F 93% 30.06 in 0.8 mi Calm Calm - N/A   Mist
12:30 AM 32.0 °F 27.5 °F 30.2 °F 93% 30.05 in 1.2 mi East 4.6 mph - N/A   Scattered Clouds
12:34 AM 32.0 °F 27.5 °F 30.2 °F 93% 30.05 in 3.0 mi East 4.6 mph - N/A   Partly Cloudy
12:53 AM 32.0 °F 28.7 °F 32.0 °F 100% 30.05 in 1.8 mi ENE 3.5 mph - N/A   Clear
12:56 AM 32.0 °F 28.7 °F 32.0 °F 100% 30.09 in 1.5 mi ENE 3.5 mph - N/A   Clear
1:08 AM 33.8 °F 29.6 °F 32.0 °F 93% 30.05 in 2.0 mi East 4.6 mph - N/A   Partly Cloudy
1:12 AM 33.8 °F 29.6 °F 32.0 °F 93% 30.05 in 1.0 mi East 4.6 mph - N/A   Mist
1:20 AM 33.8 °F 29.6 °F 32.0 °F 93% 30.05 in 0.8 mi East 4.6 mph - N/A   Mist
1:25 AM 32.0 °F 28.7 °F 32.0 °F 100% 30.05 in 1.0 mi ENE 3.5 mph - N/A   Mist
1:36 AM 33.8 °F 30.8 °F 32.0 °F 93% 30.05 in 0.8 mi East 3.5 mph - N/A   Mist
1:38 AM 33.8 °F 29.6 °F 32.0 °F 93% 30.05 in 1.0 mi East 4.6 mph - N/A   Mist
1:41 AM 33.8 °F 30.8 °F 32.0 °F 93% 30.05 in 2.0 mi East 3.5 mph - N/A   Partly Cloudy
1:56 AM 30.9 °F 27.5 °F 30.9 °F 100% 30.08 in 4.0 mi East 3.5 mph - N/A   Clear
2:07 AM 32.0 °F 28.7 °F 30.2 °F 93% 30.04 in 1.8 mi ENE 3.5 mph - N/A   Clear
2:39 AM 30.2 °F - 30.2 °F 100% 30.05 in 2.0 mi Calm Calm - N/A   Clear
2:48 AM 30.2 °F - 30.2 °F 100% 30.06 in 1.0 mi Calm Calm - N/A   Clear
2:56 AM 30.0 °F - 30.0 °F 100% 30.09 in 0.8 mi Calm Calm - N/A   Clear
3:00 AM 30.2 °F - 30.2 °F 100% 30.05 in 1.2 mi Calm Calm - N/A   Clear
3:19 AM 30.2 °F 26.7 °F 30.2 °F 100% 30.06 in 2.5 mi SSW 3.5 mph - N/A   Clear
3:46 AM 30.2 °F - 30.2 °F 100% 30.06 in 7.0 mi Calm Calm - N/A   Clear
3:56 AM 30.9 °F - 30.9 °F 100% 30.09 in 3.0 mi Calm Calm - N/A   Clear
4:05 AM 30.2 °F - 30.2 °F 100% 30.06 in 2.5 mi Calm Calm - N/A   Clear
4:24 AM 30.2 °F - 30.2 °F 100% 30.06 in 4.0 mi Calm Calm - N/A   Clear
4:39 AM 30.2 °F - 30.2 °F 100% 30.06 in 1.8 mi Calm Calm - N/A   Clear
4:49 AM 30.2 °F - 30.2 °F 100% 30.06 in 4.0 mi Calm Calm - N/A   Clear
4:56 AM 30.0 °F - 30.0 °F 100% 30.10 in 10.0 mi Calm Calm - N/A   Clear
5:05 AM 30.2 °F - 30.2 °F 100% 30.06 in 1.8 mi Calm Calm - N/A   Partly Cloudy
5:08 AM 30.2 °F - 30.2 °F 100% 30.06 in 0.8 mi Calm Calm - N/A   Mist
5:16 AM 30.2 °F - 30.2 °F 100% 30.06 in 0.5 mi Calm Calm - N/A Fog Light Freezing Fog
5:25 AM 30.2 °F - 30.2 °F 100% 30.06 in 0.8 mi Calm Calm - N/A   Mostly Cloudy
5:41 AM 30.2 °F - 30.2 °F 100% 30.05 in 0.5 mi Calm Calm - N/A Fog Light Freezing Fog
5:50 AM 30.2 °F - 28.4 °F 93% 30.05 in 1.0 mi Calm Calm - N/A   Mostly Cloudy
5:56 AM 28.9 °F - 28.9 °F 100% 30.10 in 1.2 mi Calm Calm - N/A   Mostly Cloudy
6:01 AM 28.4 °F - 28.4 °F 100% 30.06 in 3.0 mi Calm Calm - N/A   Mostly Cloudy
6:09 AM 28.4 °F - 28.4 °F 100% 30.05 in 10.0 mi Calm Calm - N/A   Scattered Clouds
6:15 AM 28.4 °F - 28.4 °F 100% 30.05 in 1.8 mi Calm Calm - N/A   Scattered Clouds
6:31 AM 28.4 °F - 28.4 °F 100% 30.06 in 0.8 mi Calm Calm - N/A   Mostly Cloudy
6:54 AM 28.4 °F - 28.4 °F 100% 30.06 in 0.5 mi Calm Calm - N/A Fog Light Freezing Fog
6:56 AM 28.9 °F - 28.9 °F 100% 30.11 in 0.5 mi Calm Calm - N/A Fog Light Freezing Fog
7:04 AM 28.4 °F 23.3 °F 28.4 °F 100% 30.06 in 1.0 mi ESE 4.6 mph - N/A   Overcast
7:07 AM 28.4 °F 22.2 °F 28.4 °F 100% 30.06 in 2.0 mi ESE 5.8 mph - N/A   Mostly Cloudy
7:15 AM 28.4 °F - 28.4 °F 100% 30.06 in 4.0 mi Calm Calm - N/A   Scattered Clouds
7:25 AM 28.4 °F - 28.4 °F 100% 30.06 in 2.5 mi Calm Calm - N/A   Mostly Cloudy
7:29 AM 28.4 °F - 28.4 °F 100% 30.07 in 1.2 mi Calm Calm - N/A   Scattered Clouds
7:32 AM 28.4 °F - 28.4 °F 100% 30.07 in 0.5 mi Calm Calm - N/A Fog Light Freezing Fog
7:40 AM 28.4 °F - 28.4 °F 100% 30.07 in 1.0 mi Calm Calm - N/A   Mist
7:54 AM 28.4 °F 22.2 °F 28.4 °F 100% 30.07 in 9.0 mi ESE 5.8 mph - N/A   Partly Cloudy
7:56 AM 28.9 °F 22.8 °F 28.9 °F 100% 30.11 in 10.0 mi ESE 5.8 mph - N/A   Partly Cloudy
8:56 AM 35.1 °F 32.2 °F 35.1 °F 100% 30.11 in 10.0 mi ESE 3.5 mph - N/A   Clear
10:56 AM 46.0 °F 43.1 °F 41.0 °F 83% 30.09 in 10.0 mi ESE 5.8 mph - N/A   Clear
11:56 AM 51.1 °F - 39.9 °F 66% 30.07 in 10.0 mi ESE 8.1 mph - N/A   Clear
12:56 PM 54.0 °F - 39.9 °F 59% 30.05 in 10.0 mi Variable 3.5 mph - N/A   Clear
1:56 PM 55.9 °F - 39.0 °F 53% 30.02 in 10.0 mi SE 6.9 mph - N/A   Clear
2:56 PM 59.0 °F - 39.0 °F 48% 29.99 in 10.0 mi SE 10.4 mph - N/A   Clear
3:56 PM 57.9 °F - 37.9 °F 47% 29.98 in 10.0 mi SE 6.9 mph - N/A   Clear
4:56 PM 59.0 °F - 39.0 °F 48% 29.96 in 10.0 mi ESE 5.8 mph - N/A   Clear
5:56 PM 55.9 °F - 41.0 °F 57% 29.96 in 10.0 mi ESE 3.5 mph - N/A   Clear
6:56 PM 55.0 °F - 39.9 °F 57% 29.96 in 10.0 mi ESE 3.5 mph - N/A   Clear
7:56 PM 51.1 °F - 41.0 °F 68% 29.95 in 10.0 mi ESE 4.6 mph - N/A   Clear
8:56 PM 48.0 °F - 42.1 °F 80% 29.94 in 10.0 mi ESE 5.8 mph - N/A   Clear
9:56 PM 48.9 °F - 41.0 °F 74% 29.93 in 10.0 mi SE 5.8 mph - N/A   Clear
10:56 PM 48.0 °F - 41.0 °F 77% 29.93 in 10.0 mi SE 6.9 mph - N/A   Clear
11:56 PM 46.0 °F 42.5 °F 39.9 °F 79% 29.92 in 10.0 mi SE 6.9 mph - N/A   Clear